SCP
0 0 0 0 0 0 0 0 0 0 0 0 0 0 0 0 0 0 0 0 0 0 0 0 0 0 0 0 0 0 0 0 0 0 0 0 0 0 0 0 0 0 0
0 0 0 0 0 0 0 0 0 0 0 0 0 0 0 0 0 0 0 0 0 0 0 0 0 0 0 0 0 0 0 0 0 0 0 0 0 0 0 0 0 0 0
0 0 0 0 0 0 0 0 0 0 0 0 0 0 0 0 0 0 0 0 0 0 0 0 0 0 0 0 0 0 0 0 0 0 0 0 0 0 0 0 0 0 0
0 0 0 0 0 0 0 0 0 0 0 0 0 0 0 0 0 0 0 0 0 0 0 0 0 0 0 0 0 0 0 0 0 0 0 0 0 0 0 0 0 0 0
0 0 0 0 0 0 0 0 0 0 0 0 0 0 0 0 0 0 0 0 0 0 0 0 0 0 0 0 0 0 0 0 0 0 0 0 0 0 0 0 0 0 0
0 0 0 0 0 0 0 0 0 0 0 0 0 0 0 0 0 0 0 0 0 0 0 0 0 0 0 0 0 0 0 0 0 0 0 0 0 0 0 0 0 0 0
0 0 0 0 0 0 0 0 0 0 0 0 0 0 0 0 0 0 0 0 0 0 0 0 0 0 0 0 0 0 0 0 0 0 0 0 0 0 0 0 0 0 0
0 0 0 0 0 0 0 0 0 0 0 0 0 0 0 0 0 0 0 0 0 0 0 0 0 0 0 0 0 0 0 0 0 0 0 0 0 0 0 0 0 0 0
0 0 0 0 0 0 0 0 0 0 0 0 0 0 0 0 0 0 0 0 0 0 0 0 0 0 0 0 0 0 0 0 0 0 0 0 0 0 0 0 0 0 0
0 0 0 0 0 0 0 0 0 0 0 0 0 0 0 0 0 0 0 0 0 0 0 0 0 0 0 0 0 0 0 0 0 0 0 0 0 0 0 0 0 0 0
0 0 0 0 0 0 0 0 0 0 0 0 0 0 0 0 0 0 0 0 0 0 0 0 0 0 0 0 0 0 0 0 0 0 0 0 0 0 0 0 0 0 0
0 0 0 0 0 0 0 0 0 0 0 0 0 0 0 0 0 0 0 0 0 0 0 0 0 0 0 0 0 0 0 0 0 0 0 0 0 0 0 0 0 0 0
0 0 0 0 0 0 0 0 0 0 0 0 0 0 0 0 0 0 0 0 0 0 0 0 0 0 0 0 0 0 0 0 0 0 0 0 0 0 0 0 0 0 0
0 0 0 0 0 0 0 0 0 0 0 0 0 0 0 0 0 0 0 0 0 0 0 0 0 0 0 0 0 0 0 0 0 0 0 0 0 0 0 0 0 0 0
0 0 0 0 0 0 0 0 0 0 0 0 0 0 0 0 0 0 0 0 0 0 0 0 0 0 0 0 0 0 0 0 0 0 0 0 0 0 0 0 0 0 0
0 0 0 0 0 0 0 0 0 0 0 0 0 0 0 0 0 0 0 0 0 0 0 0 0 0 0 0 0 0 0 0 0 0 0 0 0 0 0 0 0 0 0
0 0 0 0 0 0 0 0 0 0 0 0 0 0 0 0 0 0 0 0 0 0 0 0 0 0 0 0 0 0 0 0 0 0 0 0 0 0 0 0 0 0 0
0 0 0 0 0 0 0 0 0 0 0 0 0 0 0 0 0 0 0 0 0 0 0 0 0 0 0 0 0 0 0 0 0 0 0 0 0 0 0 0 0 0 0
0 0 0 0 0 0 0 0 0 0 0 0 0 0 0 0 0 0 0 0 0 0 0 0 0 0 0 0 0 0 0 0 0 0 0 0 0 0 0 0 0 0 0
0 0 0 0 0 0 0 0 0 0 0 0 0 0 0 0 0 0 0 0 -0 -0 0 0 0 0 0 0 0 0 0 0 0 0 0 0 0 0 0 0 0 0 0
0 0 0 0 0 0 0 0 0 0 0 0 0 0 0 0 0 0 0 0 -0 -0 -0 -0 -0 -0 -0 0 0 0 0 0 0 0 0 0 0 0 0 0 0 0 0
0 0 0 0 0 0 0 0 0 0 0 0 0 0 0 0 0 0 0 0 0 0 -0 -0 -0 -0 -0 -0 -0 0 0 0 0 0 0 0 0 0 0 0 0 0 0
0 0 0 0 0 0 0 0 0 0 0 0 0 0 0 0 0 0 0 0 0 0 0 0 -0 -0 -0 -0 0 0 0 0 0 0 0 0 0 0 0 0 0 0 0
0 0 0 0 0 0 0 0 0 0 0 0 0 0 0 0 0 0 0 0 0 0 0 0 0 0 0 0 0 0 0 0 0 0 0 0 0 0 0 0 0 0 0
0 0 0 0 0 0 0 0 0 0 0 0 0 0 0 0 0 0 0 0 0 0 0 0 0 0 0 0 0 0 0 0 0 0 0 0 0 0 0 0 0 0 0
0 0 0 0 0 0 0 0 0 0 0 0 0 0 0 0 0 0 0 0 0 0 0 0 0 0 0 0 0 0 0 0 0 0 0 0 0 0 0 0 0 0 0
Wind_Speed
17 16 16 15 16 16 15 16 17 17 18 18 18 19 19 17 17 14 12 9 7 4 2 2 3 2 3 3 4 4 4 4 4 1 1 1 2 4 5 4 5 6 8
16 16 16 17 17 17 17 17 17 18 17 17 17 18 18 17 18 17 15 10 5 4 3 2 3 2 2 3 3 5 4 4 4 3 1 1 2 2 4 5 4 5 6
15 15 16 16 17 17 17 18 17 18 17 17 16 17 18 16 17 18 18 16 12 10 8 6 5 4 4 3 4 4 3 3 3 3 2 2 2 2 3 3 3 2 3
15 15 15 16 16 16 16 17 17 17 17 17 15 16 17 16 13 15 17 17 15 13 12 11 10 8 5 5 4 4 3 3 3 4 3 2 2 2 3 3 3 3 2
14 15 15 15 15 15 16 16 16 17 17 17 14 15 16 14 12 12 13 14 14 14 13 13 14 16 16 8 5 4 3 3 3 3 3 3 2 2 2 2 3 3 3
13 14 15 15 15 15 15 16 16 16 16 16 14 14 15 14 21 20 13 9 10 12 12 11 12 15 18 19 19 17 12 6 2 2 2 3 3 2 2 1 3 4 3
12 13 14 15 15 16 16 16 15 15 15 15 14 14 14 18 27 20 17 9 9 10 10 10 10 12 15 12 17 20 19 21 17 5 4 4 3 2 2 3 2 3 4
12 12 13 14 15 15 14 14 13 12 12 12 12 13 13 17 27 24 15 8 7 9 10 9 10 10 11 12 11 12 12 13 13 11 9 8 7 6 5 3 4 7 6
12 12 12 12 14 14 14 14 12 10 9 10 10 12 13 16 24 25 14 6 6 7 9 9 8 8 16 16 11 10 11 11 18 23 23 21 23 19 11 5 4 4 4
13 13 12 12 13 12 12 13 12 11 11 11 11 11 12 13 21 24 18 4 6 6 7 8 13 14 19 17 10 8 9 8 9 11 14 17 15 17 19 11 6 4 4
13 13 12 12 12 9 10 10 11 12 12 11 12 11 10 14 19 23 20 6 4 4 5 6 7 18 20 19 14 9 11 9 8 9 9 10 10 10 10 10 9 7 6
13 13 12 12 11 11 10 10 10 10 10 9 9 11 10 11 16 20 21 13 7 3 3 3 7 18 19 19 14 15 16 12 7 8 8 9 8 8 7 8 9 10 9
13 13 12 13 11 10 9 9 8 8 8 8 8 9 10 10 13 22 18 16 10 3 1 6 13 17 16 13 17 18 13 8 7 8 8 7 7 6 6 6 7 7 9
13 13 12 11 10 8 9 8 8 8 8 9 8 9 9 10 10 9 6 8 9 4 5 10 15 16 13 13 12 10 8 7 7 7 6 6 5 6 7 6 6 4 4
14 13 13 12 10 9 8 8 10 7 10 10 5 6 8 9 12 17 11 9 7 6 7 6 6 6 6 6 6 7 6 7 7 6 6 6 6 6 6 6 6 5 4
13 13 11 11 10 10 9 10 14 14 19 18 15 13 11 14 17 18 18 17 18 17 10 7 7 6 6 5 5 5 5 5 5 5 5 5 4 4 4 4 4 4 4
14 15 12 11 11 11 11 11 10 11 14 16 16 16 15 16 16 15 15 15 16 15 8 6 5 5 4 4 3 3 2 3 3 3 3 2 3 3 3 3 3 3 3
15 16 15 11 11 11 11 10 8 7 7 7 10 14 14 13 13 13 13 10 7 7 4 4 4 4 3 3 3 2 2 2 2 2 1 1 2 2 2 2 2 2 2
14 12 11 10 10 10 10 10 7 6 6 6 6 7 10 10 9 9 8 3 2 3 3 3 2 2 2 2 2 2 2 2 1 1 1 1 1 0 1 1 1 3 2
11 19 18 12 10 10 9 9 8 7 6 5 5 5 5 4 2 2 2 1 1 2 2 2 3 3 2 1 1 1 2 2 2 1 2 2 2 2 2 3 2 2 2
9 12 19 13 9 9 9 9 8 6 5 5 4 6 10 4 2 2 1 2 2 2 3 3 3 3 3 2 2 2 3 3 3 3 3 3 3 3 3 3 3 3 3
9 10 10 10 11 11 11 9 8 7 5 4 3 4 9 3 1 1 2 3 3 3 3 3 3 3 3 3 3 3 3 4 4 4 4 4 4 4 4 4 4 4 4
9 10 11 11 11 16 14 11 10 8 5 3 3 3 3 2 2 2 2 3 3 3 3 3 3 4 3 4 4 4 4 5 5 5 5 5 5 5 5 5 6 6 6
9 11 12 12 11 11 11 11 10 9 7 4 2 2 2 2 2 3 3 3 3 3 3 3 4 5 7 5 4 4 5 6 6 6 9 8 8 7 7 7 8 9 8
9 11 12 11 11 10 10 11 11 10 8 7 5 4 2 2 2 3 3 3 4 4 5 4 3 4 6 8 7 6 11 15 15 10 8 8 10 10 10 10 9 9 9
10 11 11 9 9 8 9 9 9 10 8 8 6 4 3 3 3 3 3 3 3 4 4 4 5 6 7 7 9 12 16 17 16 13 4 2 4 5 7 7 9 9 10
Wind_Direction
340 338 336 336 336 335 334 332 330 327 327 328 333 332 332 334 333 326 313 294 280 275 273 199 159 157 153 132 127 121 117 124 141 175 120 114 127 145 146 140 144 144 152
339 338 337 336 337 337 335 333 331 329 330 330 336 338 342 353 355 351 345 340 342 4 14 43 63 66 78 103 116 122 126 124 130 149 135 96 95 149 144 146 149 154 153
340 338 338 338 337 336 335 333 334 333 333 333 341 343 345 355 10 8 4 3 10 20 24 31 46 69 64 59 71 90 104 115 120 132 129 87 77 85 120 118 126 125 156
340 338 338 338 335 333 334 335 336 336 337 337 345 347 347 349 13 18 12 10 10 16 20 25 31 40 56 63 64 67 84 103 121 126 125 109 91 60 114 130 121 101 92
338 338 338 336 333 334 336 339 339 339 340 340 344 350 350 347 11 32 20 13 12 14 18 21 28 30 34 52 74 66 75 91 120 136 135 129 111 88 105 121 128 111 64
335 335 336 337 338 338 338 342 342 341 341 342 346 350 352 349 5 28 35 19 18 18 17 17 24 29 26 35 53 57 58 60 72 103 119 122 98 77 57 83 126 134 129
333 333 335 337 339 339 343 344 342 339 341 344 347 350 349 347 358 12 30 31 26 26 24 21 25 30 36 34 40 41 41 44 46 52 69 84 96 72 75 73 69 87 96
333 333 334 336 336 337 343 343 339 335 338 340 340 346 347 348 354 4 24 27 24 23 21 24 30 34 49 53 49 46 41 43 52 51 54 54 66 66 59 69 94 100 86
335 334 333 333 334 337 342 340 338 334 337 339 340 344 348 347 352 360 18 3 18 18 15 18 35 43 59 62 56 52 45 39 51 61 61 56 53 54 52 53 58 101 99
334 332 329 331 333 334 339 337 338 340 344 344 344 344 346 342 349 355 15 13 19 18 15 10 37 64 68 66 58 58 58 52 56 58 57 53 50 47 50 45 39 55 82
328 328 328 329 324 332 335 331 335 340 341 343 344 343 342 345 349 350 359 21 37 35 30 19 37 66 64 60 57 58 76 75 63 62 59 54 48 43 41 43 43 48 69
321 322 322 323 320 331 329 326 330 334 336 336 340 342 342 340 345 342 353 11 51 64 46 31 60 67 63 61 58 57 64 64 59 60 57 51 46 40 36 41 53 63 69
316 314 312 315 314 314 317 319 323 327 330 332 341 342 338 338 336 341 357 8 17 49 41 105 90 75 64 53 57 60 57 53 57 60 59 52 45 39 34 40 47 68 71
312 311 308 308 305 303 310 317 317 315 316 323 340 338 332 332 333 344 357 359 3 42 54 82 81 77 72 65 59 53 52 62 63 59 59 53 46 45 41 34 36 37 67
309 307 308 306 300 297 297 299 305 298 305 321 326 326 331 333 349 14 25 18 22 74 81 70 65 63 62 62 62 59 56 53 56 52 50 49 45 44 41 34 35 38 51
308 309 308 307 304 305 304 302 299 306 317 322 323 330 335 346 3 21 24 29 45 58 60 52 53 52 51 50 52 53 52 53 51 55 55 51 46 41 43 37 44 44 50
306 309 308 309 309 307 305 302 300 305 314 322 324 327 335 349 11 26 32 33 41 50 53 47 40 33 29 28 31 37 42 48 48 48 50 36 32 35 41 44 41 38 38
310 311 315 308 304 303 304 304 299 303 315 317 322 324 328 343 4 28 40 40 30 35 36 38 31 22 17 11 7 7 12 20 36 40 35 21 12 7 15 29 33 28 16
315 313 313 314 318 321 320 318 310 301 301 303 308 317 327 337 348 8 36 44 17 5 1 360 356 353 353 357 355 355 351 340 344 340 317 305 296 280 300 320 320 325 352
315 324 336 336 330 325 321 315 308 298 290 285 288 294 302 311 309 327 354 349 354 333 322 316 312 311 310 306 304 310 313 303 302 284 276 278 271 252 253 262 262 260 255
325 332 339 333 321 317 313 310 309 302 288 278 270 277 288 282 250 238 277 298 300 299 298 293 288 290 291 284 271 264 263 266 262 253 252 254 249 244 245 247 252 252 254
337 330 329 328 329 331 337 334 324 312 300 291 278 290 313 347 346 270 273 279 279 277 275 276 277 270 262 260 261 263 260 256 252 245 243 243 240 239 238 237 240 242 247
333 335 337 336 339 349 356 351 348 341 328 307 291 286 294 304 302 293 283 288 290 287 283 275 271 274 269 251 234 229 240 250 246 236 233 238 237 236 233 236 238 240 242
340 341 340 342 349 357 356 353 352 354 356 351 334 312 284 277 288 297 299 296 295 293 288 277 262 266 277 277 258 242 238 248 246 242 235 235 237 237 235 236 239 239 241
343 342 341 346 354 357 355 355 357 2 5 9 7 358 336 303 297 302 304 299 298 295 296 292 276 276 281 283 281 274 280 284 281 268 238 236 240 238 238 239 242 243 242
343 340 337 345 355 357 355 353 353 357 1 4 2 353 338 322 310 306 304 301 297 293 293 291 283 283 283 282 282 289 297 299 298 304 313 276 261 253 243 241 239 240 240